GFSSGP_925_temp_276.txt.gz
Temp
29 29 27 26 26 25 26 28 27 29 31 32 33 32 30 30 30 26 25 24 25 21 23 24 24 24 23 24 24 24 24 24 23 23 22 21 20 20 20 19 19 19 19 20 21 21 21 21 21
29 29 27 24 26 27 28 27 26 26 28 28 33 32 30 29 26 22 22 22 23 24 24 24 25 24 24 24 24 24 24 24 24 22 21 20 21 21 20 20 19 19 19 20 21 22 21 21 21
30 27 25 25 24 27 27 28 28 29 29 28 29 32 30 27 25 25 24 23 22 24 24 24 24 24 24 24 24 24 24 24 23 22 22 21 21 21 20 20 20 20 19 20 21 22 22 22 21
29 25 24 27 29 29 32 29 30 31 31 30 30 28 29 30 28 26 24 23 23 24 23 24 24 23 23 24 23 23 23 23 23 23 22 22 22 21 21 21 20 20 21 21 21 22 23 23 22
28 22 25 26 28 30 29 29 28 28 29 31 31 29 28 27 27 25 23 22 24 23 23 24 24 23 23 23 23 23 23 23 23 23 23 23 22 21 21 21 21 21 21 22 22 22 23 23 23
25 23 25 25 28 31 26 26 27 28 27 29 29 28 28 26 25 24 24 24 24 24 23 23 23 23 23 23 23 23 23 23 23 23 23 22 22 21 21 21 21 21 22 22 22 22 22 22 23
27 24 25 28 28 31 27 26 28 26 28 29 31 28 27 27 26 25 25 25 26 25 23 22 22 22 23 23 23 23 23 23 23 23 23 22 22 21 21 21 22 22 22 22 22 22 22 23 23
25 24 27 28 27 29 29 27 26 27 28 28 28 28 27 29 27 25 25 25 25 25 25 24 22 22 22 23 23 23 23 23 23 23 23 22 22 22 22 22 22 22 22 23 23 23 23 23 23
28 25 25 28 30 30 27 26 28 28 26 26 28 29 30 30 28 24 23 21 22 22 24 24 24 23 23 23 23 23 23 23 23 22 22 22 22 22 22 22 23 23 23 23 24 24 24 24 24
26 24 27 28 31 31 28 27 27 28 27 27 28 29 29 29 26 24 23 21 21 21 22 23 24 24 23 23 23 23 23 23 23 23 23 23 23 23 23 23 23 23 23 23 24 24 25 25 25
28 26 29 30 30 31 28 27 29 27 26 28 29 29 30 30 27 26 25 23 22 23 23 24 24 25 25 24 24 24 24 24 24 24 24 24 23 23 23 22 22 23 23 23 24 24 25 25 24
29 29 29 30 31 32 34 29 28 27 29 31 29 30 30 29 27 27 25 24 25 23 23 25 25 24 26 25 25 25 24 24 25 25 25 24 24 23 23 23 23 23 23 24 24 24 25 23 24
28 29 29 29 29 31 34 33 29 28 30 29 29 30 29 29 28 28 27 27 26 24 24 24 25 25 25 25 26 25 25 25 25 25 25 24 24 24 24 23 24 24 24 24 24 24 25 25 25
29 28 28 29 29 32 33 34 34 30 30 29 29 29 29 27 27 26 28 27 26 26 26 25 25 25 24 26 26 26 25 25 25 25 25 25 25 25 24 24 24 24 24 25 25 25 25 25 24
28 29 28 29 32 32 31 32 32 32 31 30 29 28 27 28 28 27 28 27 28 26 27 26 26 25 25 26 26 26 26 25 25 25 25 25 25 25 25 25 25 25 24 24 24 24 24 24 24
29 28 27 28 32 32 31 28 30 30 30 28 28 27 25 24 24 25 26 27 28 28 27 27 25 25 26 26 26 25 26 25 25 25 25 25 25 25 24 25 25 25 25 25 24 24 24 22 22
24 26 27 28 30 31 31 29 29 30 30 27 26 26 25 24 23 23 24 26 26 27 26 27 26 26 26 26 26 26 25 25 25 25 25 25 24 24 24 24 24 23 23 23 23 23 22 21 21
25 26 27 27 30 29 29 28 30 28 29 27 26 25 24 23 22 22 22 24 24 25 26 26 26 26 26 27 26 26 26 26 26 25 24 25 23 23 23 21 22 22 22 22 22 21 21 20 19
27 27 26 29 29 29 29 30 28 28 28 25 25 24 23 22 21 22 22 23 24 23 23 25 25 25 25 25 25 25 25 22 22 22 22 23 22 21 20 21 20 20 20 20 20 20 20 19 19
26 26 26 29 29 28 28 29 27 27 28 26 25 23 22 20 19 19 21 22 23 23 23 23 24 24 24 24 24 24 22 19 19 19 19 19 19 19 19 19 19 19 19 19 19 18 18 18 18
26 26 27 28 30 30 30 27 30 29 29 26 25 24 22 20 19 18 19 20 21 21 22 22 21 22 23 24 23 21 20 19 19 18 18 18 19 18 19 18 18 18 18 17 17 16 17 17 17
25 28 29 29 29 27 29 25 27 27 28 26 24 22 21 20 19 19 18 19 20 20 20 21 21 22 22 23 22 21 20 17 17 18 18 17 17 17 17 17 17 17 17 17 16 16 16 16 16
28 30 28 30 28 27 27 24 25 26 26 25 23 22 21 20 19 19 19 19 19 19 19 20 21 21 21 21 21 20 19 18 17 17 17 17 17 17 17 17 17 17 16 16 16 16 16 16 16
29 28 27 24 24 25 25 24 27 25 27 26 24 23 21 20 20 19 19 18 18 19 19 19 19 19 20 19 19 19 18 18 16 16 17 17 17 17 17 17 17 16 16 16 16 16 15 15 16
28 24 22 23 23 24 26 25 27 28 27 26 24 23 21 21 20 19 18 18 17 18 18 18 19 18 18 18 19 19 19 18 17 17 17 16 16 16 16 16 16 16 15 15 15 15 15 15 15
26 24 21 23 22 26 25 24 27 28 28 27 26 24 22 21 20 19 18 18 17 18 18 18 18 18 18 18 18 18 18 18 17 17 16 16 16 16 16 16 16 15 15 15 14 14 15 14 15
27 24 25 24 24 22 23 25 27 28 26 26 26 23 22 21 20 19 18 18 18 18 18 18 18 18 18 18 18 18 18 17 17 16 16 16 16 16 16 15 15 15 15 14 14 14 14 14 14
27 27 26 21 23 22 23 24 25 26 27 25 23 22 22 21 20 19 18 18 18 18 19 19 18 18 18 18 18 17 17 17 16 16 16 16 15 15 15 14 14 14 14 13 13 13 13 13 13
26 25 25 24 22 25 25 24 24 25 24 23 23 23 22 21 20 19 19 18 18 19 19 19 19 18 18 18 17 17 17 16 16 16 15 15 15 14 14 13 13 13 12 12 13 13 12 12 12
25 24 23 21 22 21 19 20 23 21 21 23 23 22 21 22 20 20 18 18 18 18 18 19 19 18 18 18 17 17 17 16 16 15 15 14 14 13 13 12 12 12 12 12 12 12 11 11 11

GFSSGP_925_temp_279.txt.gz
Temp
27 27 25 25 27 24 25 26 24 27 27 31 31 31 30 28 29 25 22 23 25 23 22 23 24 24 24 24 24 24 24 23 22 21 21 20 19 18 18 18 19 19 19 19 19 19 19 19 19
28 26 25 23 26 24 24 26 25 25 27 28 30 30 29 27 24 21 21 21 24 23 22 23 24 24 24 24 24 24 24 23 23 22 22 20 19 19 19 19 19 19 20 20 20 20 20 20 20
28 26 24 23 23 25 25 26 25 27 28 28 29 29 28 26 23 22 24 22 22 21 22 23 24 24 24 23 23 24 23 23 22 22 21 20 19 19 20 20 20 20 21 22 22 21 21 21 21
28 24 22 25 28 28 27 27 28 28 29 30 29 29 28 27 25 25 23 22 20 21 22 23 23 24 24 23 23 23 23 23 23 22 21 20 20 20 20 21 21 21 22 22 22 22 22 21 21
27 21 24 26 27 29 28 29 28 27 29 30 30 28 27 25 26 24 23 22 20 22 22 23 23 23 23 23 23 23 23 23 23 22 21 21 21 21 21 22 22 22 22 22 22 22 22 22 22
24 22 24 25 27 28 26 25 25 27 28 29 28 28 25 22 23 21 23 22 20 21 22 23 23 23 23 23 23 23 23 23 23 23 22 22 21 21 22 22 22 22 22 22 22 22 23 22 22
25 23 25 27 27 27 27 26 26 26 27 29 28 26 24 23 22 24 24 23 22 22 22 23 22 22 23 23 23 23 23 23 23 23 22 22 22 22 22 22 22 22 22 22 23 23 23 23 23
22 23 27 27 27 27 27 27 25 26 29 26 28 26 23 24 23 22 23 23 22 21 22 23 23 22 22 22 23 23 23 23 23 23 22 22 22 22 22 22 22 23 23 23 23 23 23 23 23
24 24 24 28 29 29 26 26 27 27 27 27 28 28 28 25 23 21 21 20 20 20 20 22 22 23 23 23 23 23 23 23 23 22 22 22 22 22 22 22 23 23 23 23 23 23 23 23 23
24 23 26 27 29 30 26 26 27 27 27 27 28 28 26 25 22 21 20 19 19 19 20 20 22 23 23 23 23 23 23 23 22 23 22 22 22 22 22 22 22 22 22 22 23 23 23 23 24
26 25 26 28 28 29 27 27 27 26 27 26 27 27 25 25 23 22 22 22 23 22 20 21 23 23 23 23 24 24 23 23 23 23 22 22 22 22 22 22 22 22 22 22 23 23 23 24 24
28 27 28 29 30 30 28 28 27 26 28 28 28 28 25 25 24 24 23 22 22 22 22 23 24 23 23 23 24 25 24 23 23 23 23 22 23 23 23 22 23 23 23 23 23 23 24 23 24
26 27 28 28 27 28 29 27 27 26 29 29 28 29 27 25 25 25 24 23 22 22 23 23 23 24 24 23 24 25 25 25 25 24 24 24 24 23 23 23 23 23 24 23 24 23 24 24 24
27 28 27 27 28 27 28 29 28 28 29 29 28 27 27 26 26 25 24 23 23 23 24 23 23 24 25 24 24 25 25 25 25 25 24 24 24 23 23 23 23 24 24 24 24 23 23 23 23
28 28 26 29 30 29 29 30 28 31 28 28 28 27 27 26 27 26 25 25 24 24 25 24 24 24 26 25 24 24 25 25 25 25 25 25 24 24 23 23 22 23 23 23 23 23 23 23 23
27 26 27 27 29 31 30 28 29 29 28 28 27 26 24 24 26 28 28 26 25 25 25 25 25 24 25 24 24 24 24 25 25 25 25 24 24 24 23 23 22 21 22 22 22 22 22 22 22
21 25 26 27 28 30 30 28 29 28 26 26 25 24 23 22 22 23 26 26 26 26 26 25 25 25 25 24 24 24 23 23 23 23 24 24 24 23 22 21 21 22 22 22 22 22 21 20 20
24 26 26 26 28 29 28 27 26 28 26 25 23 23 23 22 21 21 23 26 27 26 26 26 26 26 25 25 24 23 22 22 23 23 23 23 23 22 22 21 21 21 20 20 20 21 20 19 19
25 25 24 25 27 29 26 26 28 26 25 23 23 23 22 21 20 21 22 23 24 24 25 25 25 25 25 24 23 22 21 20 21 21 21 21 21 21 19 20 19 19 19 19 18 18 18 18 18
24 24 24 25 27 26 26 26 26 25 26 25 24 23 21 19 19 20 20 22 23 23 24 25 25 25 25 25 23 24 21 19 19 19 19 19 19 19 19 19 19 18 17 18 17 17 17 17 17
24 24 24 25 27 26 27 26 27 27 26 26 25 24 22 21 20 19 19 20 21 22 23 23 24 24 24 24 23 21 19 18 18 18 18 19 19 18 18 18 17 17 17 17 16 16 16 16 17
23 24 26 26 25 24 27 24 25 27 25 24 23 21 22 20 20 19 18 18 19 20 22 22 23 23 23 23 22 21 19 17 16 17 17 17 17 18 17 17 17 17 16 16 16 16 16 16 15
25 27 25 25 24 25 26 24 24 26 27 23 23 20 21 19 19 18 18 18 19 19 20 20 21 22 22 22 21 20 18 17 16 16 17 17 17 17 17 17 17 16 16 16 16 16 15 15 15
27 26 25 22 21 22 23 23 23 24 27 25 24 24 20 18 18 18 17 17 17 18 19 19 20 19 20 20 20 19 18 17 16 16 16 16 16 16 16 16 16 16 15 15 15 15 15 14 15
26 23 21 22 21 22 24 22 24 26 25 27 23 23 21 19 18 18 18 17 16 16 17 18 19 18 19 19 19 18 18 17 17 17 17 16 16 16 16 16 15 15 15 14 14 14 14 14 14
22 22 20 22 21 24 23 22 26 26 27 25 24 25 22 19 19 18 17 16 15 16 17 18 18 18 18 19 18 17 17 18 17 17 16 16 16 15 15 15 15 15 14 14 14 14 14 13 13
26 22 23 22 23 20 22 23 26 27 25 24 22 21 21 20 19 18 17 16 15 16 17 17 17 17 18 18 18 18 17 17 16 16 16 15 15 15 15 15 15 14 14 13 13 13 13 13 12
25 25 25 19 22 21 21 22 23 25 25 25 25 21 20 20 19 17 17 16 16 16 17 17 17 18 18 18 18 17 17 17 16 16 15 15 15 15 15 14 14 13 13 12 12 12 12 12 12
23 23 23 22 19 23 23 23 21 23 23 23 21 21 20 19 18 18 17 16 16 16 16 17 18 17 17 17 17 17 16 16 16 15 15 15 15 14 14 14 13 12 12 12 11 11 11 11 10
20 16 14 16 18 18 18 20 22 21 21 20 20 19 18 19 18 17 16 16 15 16 16 16 16 16 17 17 17 16 16 15 16 15 15 15 15 14 13 13 12 12 11 11 11 11 10 10 9

GFSSGP_925_temp_285.txt.gz
Temp
26 24 24 26 32 32 32 31 29 31 31 32 32 32 32 31 31 30 21 22 23 22 21 21 22 20 22 23 21 19 19 19 20 20 19 18 19 19 19 19 19 19 19 19 19 19 20 20 20
26 25 25 29 33 33 33 31 31 31 31 31 32 31 31 30 26 23 23 21 22 22 21 21 21 21 23 24 23 22 20 20 19 19 19 19 19 19 19 19 19 19 19 19 20 21 21 21 20
25 25 30 31 31 33 33 32 33 31 31 30 31 31 30 28 25 24 23 22 22 21 21 20 22 23 24 24 24 23 22 21 19 19 20 19 19 20 20 19 20 20 20 20 20 21 21 21 21
26 28 29 33 33 32 32 32 31 31 31 31 31 30 29 25 25 24 22 22 22 22 22 20 22 23 24 24 24 23 23 21 21 20 20 19 20 21 21 21 21 21 21 21 21 21 21 21 21
26 29 32 32 32 31 31 31 30 31 30 31 30 30 28 24 23 22 22 22 22 22 22 21 22 23 24 24 24 23 22 21 21 21 20 20 21 21 22 22 22 21 21 21 21 21 21 21 21
31 29 32 32 31 31 31 29 30 30 30 30 30 29 29 23 23 22 22 23 23 21 21 21 22 23 23 23 23 23 22 21 21 22 21 22 22 22 22 21 21 21 21 21 21 21 21 21 21
32 31 31 30 31 31 30 29 31 30 30 30 30 30 28 24 22 22 22 22 22 21 21 21 20 22 23 23 23 23 23 22 22 22 22 22 22 22 22 21 21 21 21 21 21 21 21 21 21
30 31 30 30 31 32 30 30 30 31 31 29 30 30 30 26 21 20 22 22 22 22 21 21 20 21 21 20 23 23 23 23 23 22 22 22 21 22 22 22 21 22 21 21 21 21 21 21 22
28 32 31 31 32 33 31 31 29 29 31 30 30 29 27 23 20 21 22 22 23 22 21 21 21 21 21 21 21 22 22 22 22 22 22 21 20 20 21 21 22 22 22 22 22 22 22 22 22
32 31 32 31 31 33 32 30 31 30 30 31 30 26 24 22 22 23 24 24 23 23 22 21 21 21 21 21 20 20 20 20 20 20 20 20 20 21 21 21 22 22 22 22 22 22 22 22 22
29 32 31 31 31 31 31 29 30 31 32 33 32 28 25 24 24 25 25 26 25 24 23 22 20 20 20 21 20 20 20 20 20 19 20 20 20 20 20 21 21 21 22 21 22 21 22 22 22
30 30 30 31 31 31 32 31 31 31 33 31 32 29 27 26 26 26 26 25 24 23 22 22 21 19 19 20 20 20 20 20 19 21 19 19 20 20 20 21 21 21 21 21 21 22 21 21 22
29 30 30 31 30 31 30 32 32 32 31 30 30 28 27 27 27 27 26 25 24 23 23 22 21 20 19 21 20 20 22 21 20 22 21 20 20 20 20 20 20 20 20 21 22 22 22 22 22
29 29 30 31 31 30 32 31 30 35 32 30 30 29 28 27 27 26 25 25 23 23 23 22 21 20 20 23 21 20 21 21 20 20 20 21 20 20 20 20 20 20 21 21 21 22 22 22 22
28 30 30 31 32 32 31 31 32 34 31 32 30 30 29 28 27 26 26 25 24 23 23 22 21 21 22 22 22 20 21 21 21 20 22 22 21 20 21 20 21 21 22 22 22 22 22 22 22
29 29 30 32 31 31 31 33 34 33 31 31 31 30 29 28 28 27 27 26 24 24 22 22 22 22 23 22 23 21 21 22 22 21 22 22 22 21 21 20 20 20 20 20 21 21 21 21 20
27 29 28 30 30 30 31 33 33 31 31 31 31 31 30 30 28 28 27 26 24 23 24 23 22 23 21 22 22 23 22 22 21 22 22 22 22 21 20 20 19 19 19 19 20 19 19 20 20
28 28 28 29 30 30 30 31 33 32 31 32 31 31 32 31 30 28 27 26 25 24 24 24 23 22 23 21 22 20 20 21 22 22 22 22 21 20 19 19 20 20 20 20 20 20 20 19 19
27 27 27 28 29 28 30 30 31 32 29 31 32 30 31 32 32 30 26 25 25 23 23 23 22 23 23 21 21 19 19 20 21 21 21 21 20 19 19 19 19 18 18 18 18 18 18 18 17
26 27 28 27 27 27 30 30 31 31 31 31 32 31 31 31 31 27 26 24 23 23 22 22 22 22 23 22 21 19 19 19 20 20 20 19 19 19 19 19 18 17 17 17 17 16 18 18 17
27 27 27 27 28 28 28 29 31 31 29 29 29 30 31 30 30 29 26 23 23 22 22 22 22 21 22 21 20 20 20 19 18 18 18 19 19 19 18 18 18 17 17 16 15 16 16 18 17
26 27 27 27 26 28 28 28 30 31 30 30 31 29 29 29 29 29 26 24 23 22 22 22 21 21 21 20 20 20 21 20 17 17 17 16 17 16 17 17 17 17 16 15 15 15 15 16 17
28 27 27 27 27 26 28 27 30 28 31 32 32 29 29 29 28 27 26 24 22 21 21 22 21 21 20 19 20 20 20 18 17 16 16 15 16 16 16 16 17 16 15 15 14 15 14 15 16
28 28 27 24 26 26 29 28 30 31 31 33 32 32 30 28 28 26 24 21 21 21 20 20 20 19 19 19 19 19 18 17 17 16 16 16 15 15 15 16 16 16 15 15 15 14 13 14 14
27 26 26 27 27 27 29 27 29 31 32 32 33 33 31 29 28 26 25 22 20 20 19 20 19 19 19 19 19 18 18 17 16 16 16 15 15 15 14 16 15 15 16 15 14 14 13 13 13
25 26 27 25 26 28 26 27 30 30 32 32 30 31 30 29 28 27 26 24 20 18 18 18 18 18 18 18 17 17 16 17 16 16 16 16 16 14 15 16 15 15 14 14 14 13 13 12 12
25 25 24 25 27 25 27 29 29 29 30 31 30 30 29 29 28 27 27 24 19 17 17 18 17 17 17 17 17 16 16 16 16 16 15 15 14 14 15 15 15 14 13 13 13 13 12 11 11
21 22 24 25 24 24 27 26 28 26 22 23 23 23 23 25 26 25 25 22 16 16 16 17 17 17 17 17 17 18 18 17 16 16 15 15 14 14 14 13 14 13 12 12 12 12 11 11 11
19 20 18 19 21 23 25 27 22 20 21 21 22 21 22 22 25 24 22 16 16 16 16 16 16 16 16 17 16 16 15 15 15 14 14 15 15 14 13 12 12 12 12 12 11 11 11 10 10
17 15 15 17 19 18 18 22 21 21 21 21 21 21 20 21 22 23 17 16 17 17 17 16 17 17 17 16 16 16 16 15 15 15 14 14 14 13 13 12 12 12 11 11 11 11 11 10 10

GFSSGP_925_temp_291.txt.gz
Temp
27 28 31 34 35 36 37 38 39 37 39 39 39 38 37 36 35 30 33 33 31 27 23 21 22 20 20 20 20 20 21 21 20 19 19 19 19 19 19 20 19 19 19 19 19 20 20 20 20
29 33 34 37 36 25 33 40 38 38 37 38 38 38 37 34 35 33 32 32 30 27 24 22 22 21 20 20 20 20 20 20 19 19 19 19 19 20 20 20 19 19 19 20 20 20 20 21 21
28 33 36 39 37 35 32 37 39 38 38 38 36 37 36 33 33 33 32 31 29 27 26 22 21 21 19 19 20 20 19 19 19 19 19 19 19 20 20 19 19 19 20 20 20 20 20 21 21
34 39 39 38 38 38 35 28 40 38 38 38 38 36 34 33 33 32 31 31 29 29 26 22 22 21 19 19 19 19 19 19 19 19 19 19 20 20 19 19 19 20 20 20 21 21 21 21 21
36 39 38 39 40 40 40 40 40 38 38 38 38 36 33 32 32 31 31 31 31 30 25 22 22 21 20 19 20 20 19 19 20 19 20 20 20 20 20 20 20 20 21 21 21 21 21 21 21
37 39 38 38 40 40 40 40 40 39 39 37 38 37 34 32 32 31 31 31 31 29 26 22 22 22 21 21 21 21 21 20 20 20 20 20 20 21 20 20 20 20 21 21 21 21 21 22 22
37 38 38 39 39 39 40 40 40 39 39 38 38 37 34 34 32 32 32 32 31 29 27 24 22 21 21 22 23 22 21 21 21 21 21 22 21 21 21 21 21 21 21 22 22 22 22 22 23
38 38 38 39 39 38 39 39 40 40 38 38 39 37 34 34 32 32 33 32 32 30 28 26 25 23 22 21 22 21 21 21 21 21 21 22 22 22 22 22 22 22 22 22 22 22 22 23 24
38 36 37 38 39 39 40 39 39 40 39 39 38 38 37 32 32 33 33 33 32 32 30 29 27 26 26 24 21 22 22 22 21 22 22 22 22 22 22 23 23 23 23 23 23 23 23 24 25
36 36 38 40 39 39 39 39 39 38 38 38 37 36 34 32 33 34 34 34 33 32 31 30 30 28 28 26 22 22 22 22 22 23 22 22 25 26 26 24 23 24 24 24 24 24 24 25 24
37 36 39 39 39 38 39 39 39 38 38 39 38 36 35 33 34 35 35 34 34 33 32 31 30 29 29 28 25 26 25 25 24 24 24 24 27 26 26 26 25 24 24 24 25 24 26 26 28
36 37 38 39 38 38 38 39 39 39 39 41 40 37 35 34 35 36 35 35 35 33 32 32 30 28 29 29 27 28 28 27 26 25 24 25 25 26 26 27 28 27 26 27 27 28 28 27 27
36 37 38 38 38 38 38 38 39 39 40 40 40 37 36 36 36 36 35 35 34 34 32 31 30 27 28 28 28 28 28 27 27 26 25 26 26 26 26 26 27 27 28 27 27 28 27 27 27
38 37 37 38 38 38 37 38 38 39 40 39 39 38 37 37 37 36 35 35 34 33 32 31 30 27 27 27 28 28 27 28 27 27 26 25 25 26 26 26 26 26 27 27 27 27 26 26 27
36 35 36 37 37 37 38 37 37 40 40 39 38 38 38 37 37 36 35 34 33 32 32 31 30 27 26 26 26 27 27 27 27 27 25 25 24 24 24 26 26 26 26 26 26 26 27 26 26
35 35 34 37 37 37 37 35 38 40 40 39 39 39 38 38 38 36 35 34 32 32 31 30 30 28 26 26 25 27 28 27 27 27 26 24 24 24 24 25 26 26 26 26 26 26 25 26 26
35 34 35 36 39 38 37 36 38 40 40 39 39 39 39 39 37 37 36 34 33 31 30 29 29 29 27 26 26 26 27 27 27 27 27 25 24 24 23 25 26 25 25 25 26 26 25 25 25
35 35 36 36 37 37 37 37 38 39 39 38 39 39 39 39 39 37 36 35 33 31 30 29 28 29 27 26 26 27 28 27 27 27 27 26 24 24 24 24 24 23 24 25 24 23 24 23 23
35 34 34 36 37 35 35 36 37 39 39 39 38 39 39 39 40 38 36 35 34 31 30 28 28 27 27 27 26 28 28 27 27 27 26 25 24 25 24 23 23 22 23 23 22 22 23 24 24
33 33 34 35 36 35 35 35 36 37 38 39 39 39 39 39 40 40 38 35 34 32 30 28 28 27 26 27 27 28 28 28 27 27 25 24 24 24 23 23 23 22 21 22 20 21 22 24 23
33 33 34 34 35 35 34 34 35 37 38 38 38 39 39 39 39 39 39 36 34 32 30 28 27 27 26 28 27 27 28 28 27 26 24 23 22 22 22 22 22 21 21 22 20 21 21 23 23
33 35 34 34 33 33 36 33 36 37 37 37 38 38 39 38 39 39 39 39 35 33 31 29 27 27 26 26 28 27 28 27 26 25 24 21 20 21 21 21 20 20 22 20 20 20 20 20 23
32 34 33 33 33 33 34 34 35 37 36 37 38 38 38 39 39 39 39 39 38 34 32 30 28 27 26 25 27 27 26 27 26 26 22 21 20 20 20 20 19 19 21 18 19 19 18 21 21
33 32 33 33 33 32 33 34 34 36 37 37 37 37 36 36 37 39 39 38 38 37 33 31 28 27 25 25 24 26 26 27 27 25 21 21 20 20 20 19 19 19 18 18 18 18 18 18 18
33 32 31 31 33 32 35 35 35 36 37 34 32 31 31 31 32 33 34 36 37 37 34 32 29 27 26 25 24 25 25 25 25 23 22 22 21 20 18 18 18 18 18 18 17 18 17 17 18
30 30 30 28 30 32 34 33 35 36 34 32 30 29 29 28 29 30 30 32 32 35 32 32 30 27 26 25 25 25 24 26 24 22 23 22 21 20 18 18 18 17 17 17 17 17 18 17 17
29 29 29 28 30 30 32 33 35 32 30 28 27 27 26 27 27 28 29 27 27 26 31 30 30 28 27 26 25 24 24 24 24 22 20 20 20 19 17 17 17 17 17 17 17 18 17 16 16
27 28 27 29 27 27 31 32 28 27 26 25 25 25 25 26 26 27 27 26 25 23 22 25 23 24 23 25 25 23 22 23 22 20 19 19 20 18 17 17 17 17 17 17 17 17 16 16 17
26 27 25 25 26 27 27 30 29 27 26 25 25 24 24 23 24 24 25 25 24 22 22 22 22 21 21 22 21 21 20 21 20 19 19 20 18 17 17 17 16 17 16 16 16 16 16 16 16
24 22 22 22 23 24 23 26 30 29 28 25 24 24 24 23 23 23 23 23 21 19 20 20 22 20 19 20 20 21 20 20 18 18 19 18 17 17 17 17 17 16 16 15 16 17 17 16 16